BEIDOU-3 M24 (C46)

Last updated on Jan. 19, 2020, 4:38 a.m. UTC

1 44543U 19061B   20018.11695412  .00000014  00000-0  10000-3 0  9996
2 44543  54.9508 262.1001 0005897 320.3721 346.7122  1.86232054  2178
UTC
Height (km)
Latitude
Longitude
Inclination
Orbital Period
UTC large
Height (km)
Speed (km/s)
/
Latitude / Longitude
Inclination (degrees)
Orbital Period (minutes)
Azimuth
Elevation
Range (km)
Doppler Factor
iOS Compass Heading
iOS Angle

Next 30 passes for location: Hong Kong

Rise time Rise Azimuth (degrees) Set time Set Azimuth (degrees) Duration Max altitude (degrees)

No matching passes for this satellites